Hlavní strana
METAR-TAF:

METAR-TAF

Letiště :

Bolton Field

Columbus, Ohio, Spojené státy americké

zeměpisná šířka: 39-54-03N, zeměpisná délka: 083-08-14W, výška: 276 m

Aktuální stav počasí

Zpráva byla vytvořena před 11 minutami, v 01:55 UTC
Bezvětří
Teplota -3°C
Vlhkost vzduchu 93%
Tlak 1020 hPa
Viditelnost: 16.1 km
Jasno

METAR: KTZR 230155Z AUTO 00000KT 10SM CLR M03/M04 A3013 RMK AO2 T10301038 TSNO

Čas: 21:06 (02:06 UTC)


TAF: chybějící

Stav a předpovědi počasí z více než 4 000 letišť (zprávy METAR a TAF).

Červené a žluté tečky na mapě představují dostupné meteorologické stanice.

Když kurzor umístíte na tečku, zobrazí se název stanice.

Pak kliknutím zobrazíte stav a předpověď počasí.

Chcete-li změnit mapu, kliknutím na zelené tlačítko se znaménkem +mapu přiblížíte, kliknutím na zelené tlačítko se znaménkem – mapu oddálíte a kliknutím na zelené šipky přejdete na sousední mapy.


METAR-TAF: